Simultaneous Nadir Overpasses (SNOs) Predictions

Prediction of SNOs between AQUA and GOES-15 Satellite Orbit:

Table of predicted SNOs for the next 14.0 days since TLE Epoch: 8/30/2019
Index Date Time (AQUA) AQUA Lat,Lon GOES-15 Lat,Lon Distance(km) Time Diff (sec)
1 08/31/2019 22:10:00 -0.42,-128.58 -0.37,-128.36 25.11 80
2 09/02/2019 21:57:49 0.23,-125.63 -0.37,-128.34 308.82 80
3 09/03/2019 10:19:04 0.89,-130.78 0.37,-128.35 276.04 80
4 09/05/2019 10:06:52 0.29,-127.81 0.37,-128.32 57.24 80
5 09/07/2019 09:54:41 -0.38,-124.87 0.37,-128.29 389.91 80
6 09/07/2019 22:16:04 -0.75,-130.05 -0.36,-128.26 204.01 80
7 09/09/2019 22:03:52 -0.14,-127.09 -0.36,-128.22 128.34 80
8 09/10/2019 10:25:08 1.19,-132.26 0.35,-128.24 455.99 80
9 09/11/2019 21:51:42 0.53,-124.14 -0.35,-128.19 460.52 80
10 09/12/2019 10:12:56 0.58,-129.30 0.35,-128.21 123.97 80




NCC Satellite Simultaneous Nadir Overpasses (SNOs) Prediction Service
